Weather History for Vernal, UT

Change the Weather History Date:

Sunday, February 10, 2013

  Actual Average Record
Temperature  
Mean Temperature 18 °F 24 °F  
Max Temperature 27 °F 34 °F 58 °F (1951)
Min Temperature 8 °F 14 °F -32 °F (1933)
Degree Days  
Heating Degree Days 47 41  
Month to date heating degree days 478 428  
Since 1 July heating degree days 5037 4823  
Cooling Degree Days 0 0  
Month to date cooling degree days 0 0  
Year to date cooling degree days 0 0  
Moisture  
Dew Point 16 °F    
Average Humidity 80    
Maximum Humidity 92    
Minimum Humidity 68    
Precipitation  
Precipitation T in 0.02 in 0.30 in (1941)
Month to date precipitation 0.13 0.17  
Year to date precipitation 1.00 0.67  
Sea Level Pressure  
Sea Level Pressure 29.97 in    
Wind  
Wind Speed 2 mph (NNE)    
Max Wind Speed 7 mph    
Max Gust Speed 8 mph    
Visibility 8 miles    
Events Snow    
T = Trace of Precipitation, MM = Missing Value Source: NWS Daily Summary

Daily Weather History Graph

Daily Weather History Graph

Search for Another Location

Airport:

Trip Planner

Search our weather history database for the weather conditions in past years. The results will help you decide how hot, cold, wet, or windy it might be!

Date:

Astronomy

Feb. 10, 2013 Rise Set
Actual Time 7:17 AM MST 5:47 PM MST
Civil Twilight 6:49 AM MST 6:15 PM MST
Nautical Twilight 6:17 AM MST 6:48 PM MST
Astronomical Twilight 5:45 AM MST 7:19 PM MST
Moon 7:08 AM MST (2/10) 6:42 PM MST (2/10)
Length of Visible Light 11h 26m
Length of Day
10h 30m
New Moon, 0% of the Moon is Illuminated
Feb 10
New Moon
Feb 17
First Quarter
Feb 25
Full
Mar 4
Last Quarter
Mar 11
New

Hourly Weather History & Observations

Time (MST) Temp. Windchill Dew Point Humidity Pressure Visibility Wind Dir Wind Speed Gust Speed Precip Events Conditions
12:53 AM 19.9 °F 13.4 °F 18.0 °F 92% 29.89 in 10.0 mi East 4.6 mph - N/A   Overcast
1:26 AM 19.4 °F 14.3 °F 17.6 °F 93% 29.78 in 10.0 mi ENE 3.5 mph - N/A   Overcast
1:53 AM 19.9 °F - 18.0 °F 92% 29.90 in 10.0 mi Calm Calm - N/A   Overcast
2:53 AM 19.9 °F - 18.0 °F 92% 29.91 in 9.0 mi Calm Calm - N/A   Overcast
3:53 AM 19.9 °F 14.9 °F 18.0 °F 92% 29.90 in 10.0 mi ENE 3.5 mph - N/A   Overcast
4:53 AM 19.9 °F - 17.1 °F 89% 29.92 in 9.0 mi Calm Calm - N/A   Overcast
5:25 AM 19.4 °F - 17.6 °F 93% 29.81 in 10.0 mi Calm Calm - N/A   Overcast
5:53 AM 19.0 °F 13.9 °F 16.0 °F 88% 29.94 in 10.0 mi East 3.5 mph - N/A   Overcast
6:53 AM 18.0 °F - 15.1 °F 88% 29.95 in 10.0 mi Calm Calm - N/A   Overcast
7:53 AM 18.0 °F 11.1 °F 14.0 °F 84% 29.99 in 10.0 mi North 4.6 mph - N/A   Overcast
8:53 AM 17.1 °F 10.0 °F 12.9 °F 84% 30.01 in 10.0 mi North 4.6 mph - N/A   Overcast
9:53 AM 19.0 °F - 14.0 °F 81% 30.01 in 10.0 mi Calm Calm - N/A   Overcast
10:53 AM 21.0 °F 16.2 °F 15.1 °F 78% 30.03 in 3.0 mi NE 3.5 mph - 0.00 in Snow Light Snow
11:01 AM 21.2 °F - 15.8 °F 80% 29.90 in 5.0 mi Calm Calm - 0.00 in Snow Light Snow
11:53 AM 23.0 °F - 17.1 °F 78% 30.02 in 2.0 mi Calm Calm - 0.00 in Snow Light Snow
12:04 PM 23.0 °F - 17.6 °F 80% 29.89 in 4.0 mi Calm Calm - 0.00 in Snow Light Snow
12:20 PM 23.0 °F - 17.6 °F 80% 29.89 in 1.8 mi Calm Calm - 0.00 in Snow Light Snow
12:35 PM 24.8 °F - 17.6 °F 74% 29.88 in 3.0 mi Calm Calm - 0.00 in Snow Light Snow
12:53 PM 24.1 °F - 17.1 °F 75% 30.00 in 6.0 mi Calm Calm - 0.00 in   Haze
1:10 PM 24.8 °F - 17.6 °F 74% 29.88 in 4.0 mi Calm Calm - 0.00 in Snow Light Snow
1:53 PM 24.1 °F - 17.1 °F 75% 29.99 in 10.0 mi Calm Calm - 0.00 in   Overcast
2:18 PM 26.6 °F - 17.6 °F 69% 29.87 in 10.0 mi Calm Calm - N/A   Scattered Clouds
2:53 PM 26.1 °F - 17.1 °F 69% 29.98 in 10.0 mi Calm Calm - N/A   Clear
3:53 PM 24.1 °F 18.2 °F 17.1 °F 75% 29.99 in 10.0 mi South 4.6 mph - N/A   Clear
4:53 PM 21.9 °F 14.5 °F 16.0 °F 78% 30.01 in 10.0 mi East 5.8 mph - N/A   Clear
5:53 PM 21.0 °F - 16.0 °F 81% 30.03 in 10.0 mi Calm Calm - N/A   Mostly Cloudy
6:53 PM 19.9 °F - 16.0 °F 85% 30.06 in 4.0 mi Calm Calm - 0.00 in Snow Light Snow
7:53 PM 19.0 °F - 15.1 °F 85% 30.07 in 6.0 mi Calm Calm - 0.00 in   Overcast
8:53 PM 16.0 °F 10.4 °F 12.9 °F 88% 30.11 in 9.0 mi North 3.5 mph - N/A   Partly Cloudy
9:53 PM 12.0 °F 5.9 °F 9.0 °F 88% 30.12 in 4.0 mi West 3.5 mph - N/A   Clear
10:53 PM 8.1 °F -0.5 °F 6.1 °F 92% 30.14 in 6.0 mi NW 4.6 mph - N/A   Clear
11:53 PM 10.0 °F 3.6 °F 6.1 °F 84% 30.14 in 7.0 mi WNW 3.5 mph - N/A   Overcast